Temp
88 90 90 90 93 92 94 94 89 86 86 86 86 85 84 85 84 84 83 81 82 84
87 88 90 89 89 93 92 95 90 87 85 85 85 84 83 84 83 82 82 82 82 82
89 88 89 90 89 89 91 90 89 86 86 85 84 83 82 83 84 81 82 84 82 81
89 89 89 90 90 88 89 88 88 85 85 83 80 80 80 81 81 81 80 81 80 80
90 89 89 88 90 88 86 87 86 85 84 80 78 75 75 79 80 81 80 80 79 79
89 89 88 88 89 88 86 82 84 83 80 80 76 75 78 78 79 80 81 80 78 80
89 89 90 89 88 87 85 83 83 81 81 78 77 78 80 79 79 79 81 78 81 81
90 90 89 88 87 87 83 83 82 81 80 80 78 82 79 79 79 79 78 80 81 81
90 89 88 87 86 84 83 81 80 80 79 77 81 71 69 77 80 80 77 78 76 78
90 88 86 86 84 82 81 80 79 78 78 76 78 65 66 69 80 80 78 78 78 79
90 87 85 82 81 79 79 79 78 76 77 77 78 63 63 66 77 78 78 80 79 77
89 87 84 81 80 79 78 78 77 76 77 76 78 62 61 66 78 78 77 79 79 77
89 87 83 82 80 79 78 78 79 76 78 73 79 62 60 64 80 78 80 77 76 65
88 85 84 79 80 78 74 74 74 75 77 76 78 75 58 58 76 79 80 75 71 69
MSLP
1011.03 1011.35 1011.61 1011.83 1011.74 1012.24 1012.07 1012.52 1013.44 1014.43 1014.96 1015.41 1015.66 1016.09 1016.40 1016.75 1017.05 1016.93 1017.14 1017.07 1016.93 1016.60
1010.20 1010.63 1010.73 1011.08 1011.50 1011.66 1011.96 1012.12 1013.12 1013.94 1014.58 1015.01 1015.24 1015.73 1016.46 1016.62 1016.72 1017.02 1017.01 1016.89 1016.91 1016.99
1009.16 1009.88 1010.32 1010.45 1010.85 1011.39 1011.67 1012.25 1012.56 1013.58 1014.11 1014.60 1014.98 1015.27 1016.10 1016.54 1016.55 1016.82 1017.01 1016.70 1016.41 1016.58
1008.16 1008.96 1009.62 1009.85 1010.35 1011.01 1011.58 1012.09 1012.57 1013.27 1013.68 1014.25 1014.40 1015.56 1015.74 1015.87 1016.14 1016.50 1016.78 1016.88 1016.64 1016.50
1007.20 1007.92 1008.51 1009.11 1009.52 1010.38 1011.13 1011.64 1012.07 1012.71 1013.19 1013.51 1013.73 1012.27 1013.05 1014.47 1015.51 1016.05 1016.14 1016.28 1016.28 1016.22
1006.17 1006.75 1007.35 1008.01 1008.70 1009.37 1010.22 1010.79 1011.24 1011.74 1012.27 1012.45 1012.86 1013.36 1012.96 1013.39 1014.06 1015.17 1015.48 1015.71 1015.83 1015.96
1005.02 1005.72 1006.45 1007.08 1007.74 1008.49 1009.35 1009.91 1010.16 1010.57 1011.28 1012.15 1012.80 1013.24 1012.51 1012.44 1013.76 1014.37 1014.76 1015.14 1015.25 1015.41
1004.00 1004.95 1005.75 1006.40 1007.07 1007.84 1008.82 1009.42 1009.91 1010.07 1010.64 1011.49 1012.35 1012.55 1012.35 1012.26 1013.09 1013.75 1014.40 1014.81 1014.78 1014.77
1003.16 1004.24 1005.01 1005.80 1006.57 1007.48 1008.24 1009.10 1009.61 1010.00 1010.23 1010.81 1011.62 1011.76 1012.48 1012.12 1012.44 1012.89 1013.53 1013.97 1014.27 1014.35
1002.30 1003.32 1004.30 1005.37 1006.19 1006.93 1007.84 1008.63 1009.47 1009.79 1010.25 1010.98 1011.41 1011.88 1012.45 1012.28 1012.17 1012.31 1012.76 1013.22 1013.48 1013.86
1001.84 1002.99 1004.12 1004.90 1005.61 1006.50 1007.36 1007.85 1008.40 1009.46 1009.97 1010.47 1010.86 1011.70 1012.06 1011.95 1012.19 1012.18 1012.54 1012.72 1013.09 1013.50
1001.57 1002.49 1003.53 1004.38 1004.93 1005.57 1006.16 1006.95 1007.97 1007.75 1009.18 1009.86 1010.17 1011.18 1011.66 1011.96 1011.91 1011.86 1012.01 1012.25 1012.59 1013.00
1001.32 1002.20 1003.17 1004.14 1004.84 1005.66 1006.31 1006.90 1007.38 1008.03 1008.39 1009.25 1009.54 1010.33 1011.10 1011.49 1011.10 1011.08 1011.09 1011.22 1012.09 1012.88
1001.50 1002.40 1003.21 1004.05 1004.65 1005.36 1006.12 1006.68 1007.10 1007.25 1007.93 1008.63 1008.76 1009.55 1010.33 1011.00 1010.98 1010.74 1010.44 1011.00 1011.68 1012.26
Wind_Speed
15 12 11 11 8 9 8 8 12 11 9 7 8 6 4 5 5 4 4 5 4 6
15 15 13 12 12 9 7 6 10 12 11 10 8 6 5 6 5 5 5 5 5 6
16 15 13 12 11 11 8 8 12 12 12 10 10 9 6 6 7 5 6 6 4 4
16 17 15 13 13 11 9 10 9 11 11 11 11 7 7 8 7 6 7 8 7 6
17 17 17 16 15 14 13 12 12 13 12 12 15 18 14 11 6 9 10 10 7 7
18 18 18 18 16 15 15 15 16 15 15 17 14 11 12 11 11 11 10 8 7 8
19 18 17 16 17 17 17 17 17 18 18 16 13 12 13 13 12 12 10 8 9 9
17 16 15 16 16 15 17 16 17 18 17 16 14 12 13 13 12 11 12 11 11 10
16 16 16 14 15 15 15 15 16 16 16 17 12 9 9 11 11 11 11 11 8 8
16 17 16 15 15 15 15 15 15 16 15 14 12 7 9 10 10 10 11 11 10 10
14 15 14 14 14 14 14 16 14 15 14 12 9 7 12 12 13 10 10 11 12 12
15 15 15 16 17 15 15 14 13 14 14 13 11 11 10 11 11 11 12 12 11 9
14 14 15 15 13 11 11 14 12 11 14 14 12 9 13 13 10 11 13 12 9 8
13 12 12 11 11 13 10 9 10 9 11 12 10 9 15 15 11 11 8 4 3 5
Wind_Direction
204 210 210 206 231 207 222 185 143 180 184 210 181 206 170 219 238 189 213 225 253 304
196 212 210 214 196 227 217 178 164 174 189 188 192 188 184 245 215 252 223 242 223 253
197 198 217 205 203 212 197 223 162 178 186 181 182 172 183 252 220 241 267 253 237 253
197 198 200 213 200 201 207 184 181 185 186 180 161 179 180 223 288 243 227 256 266 256
195 197 199 206 202 190 199 190 193 184 189 176 190 186 173 188 222 235 234 240 244 253
197 198 199 198 200 191 195 185 189 185 191 196 196 197 175 173 194 226 245 237 237 246
197 200 200 197 200 192 194 190 192 188 194 197 193 212 183 173 199 218 232 229 238 241
192 196 198 201 198 199 192 199 198 192 195 195 201 212 194 182 196 209 223 234 240 228
184 190 197 197 206 194 196 206 204 205 198 194 211 198 205 192 199 206 207 228 231 250
182 185 189 193 196 200 203 199 205 210 207 208 216 171 193 199 217 218 215 219 233 247
182 180 184 191 196 190 202 206 198 210 211 212 214 193 212 196 219 223 239 237 235 239
182 186 186 195 194 197 203 205 215 191 215 219 220 203 209 191 218 224 233 240 241 243
183 189 193 198 198 195 202 208 210 214 215 225 233 192 185 196 225 226 230 213 222 223
183 186 189 183 191 189 201 201 208 203 221 229 225 223 178 197 227 256 261 249 217 189